Weather History for CWJV - March, 2013

Change the Weather History Date:

Friday, March 15, 2013

  Actual Average Record
Temperature  
Mean Temperature 47 °F -  
Max Temperature 59 °F - - ()
Min Temperature 35 °F - - ()
Degree Days  
Heating Degree Days 18    
Moisture  
Dew Point 35 °F    
Average Humidity 67    
Maximum Humidity 97    
Minimum Humidity 22    
Precipitation  
Precipitation 0.00 in - - ()
Sea Level Pressure  
Sea Level Pressure 30.04 in    
Wind  
Wind Speed 4 mph ()    
Max Wind Speed 8 mph    
Max Gust Speed -    
T = Trace of Precipitation, MM = Missing Value Source: Averaged Metar Reports

Daily Weather History Graph

Daily Weather History Graph

Search for Another Location

Airport or City:

Trip Planner

Search our weather history database for the weather conditions in past years. The results will help you decide how hot, cold, wet, or windy it might be!

Date:

Astronomy

Mar. 15, 2013 Rise Set
Actual Time 7:09 AM PDT 7:02 PM PDT
Civil Twilight 6:37 AM PDT 7:34 PM PDT
Nautical Twilight 5:59 AM PDT 8:12 PM PDT
Astronomical Twilight 5:20 AM PDT 8:51 PM PDT
Moon 8:36 AM PDT (3/15) 11:50 PM PDT (3/15)
Length of Visible Light 12h 57m
Length of Day
11h 52m
Waxing Crescent, 16% of the Moon is Illuminated
Mar 15
Waxing Crescent
Mar 19
First Quarter
Mar 27
Full
Apr 2
Last Quarter
Apr 10
New

Hourly Weather History & Observations

Time (PDT) Temp. Windchill Dew Point Humidity Pressure Visibility Wind Dir Wind Speed Gust Speed Precip Events Conditions
12:00 AM 42.4 °F 39.6 °F 41.5 °F 97% 29.96 in - ENE 4.6 mph - N/A   Unknown
1:00 AM 42.8 °F - 40.1 °F 90% 29.98 in - SE 2.3 mph - N/A   Unknown
2:00 AM 43.0 °F - 37.6 °F 81% 30.00 in - NNW 2.3 mph - N/A   Unknown
3:00 AM 45.7 °F 44.4 °F 36.7 °F 71% 30.02 in - WNW 3.5 mph - N/A   Unknown
4:00 AM 39.9 °F 37.8 °F 34.0 °F 79% 30.04 in - East 3.5 mph - N/A   Unknown
5:00 AM 37 °F - 35 °F 89% 30.06 in - East 6.9 mph - -  
5:00 AM 37.0 °F 31.6 °F 34.9 °F 92% 30.06 in - East 6.9 mph - N/A   Unknown
6:00 AM 35.8 °F 29.4 °F 34.5 °F 95% 30.08 in - East 8.1 mph - N/A   Unknown
7:00 AM 35.2 °F 29.5 °F 33.4 °F 93% 30.08 in - ESE 6.9 mph - N/A   Unknown
8:00 AM 36.9 °F 31.4 °F 34.9 °F 93% 30.09 in - ESE 6.9 mph - N/A   Unknown
9:00 AM 39.4 °F 34.5 °F 36.9 °F 91% 30.09 in - East 6.9 mph - N/A   Unknown
10:00 AM 43.2 °F 39.7 °F 39.2 °F 86% 30.10 in - East 5.8 mph - N/A   Unknown
11:00 AM 47 °F - 41 °F 73% 30.09 in - East 5.8 mph - -  
11:00 AM 47.5 °F - 41.0 °F 78% 30.09 in - East 5.8 mph - N/A   Unknown
12:00 PM 53.6 °F - 40.1 °F 60% 30.08 in - NW 1.2 mph - N/A   Unknown
1:00 PM 58.1 °F - 34.5 °F 41% 30.07 in - WNW 4.6 mph - N/A   Unknown
2:00 PM 59.2 °F - 34.0 °F 39% 30.04 in - NW 3.5 mph - N/A   Unknown
3:00 PM 57.0 °F - 33.6 °F 41% 30.03 in - NNW 6.9 mph - N/A   Unknown
4:00 PM 57.7 °F - 31.6 °F 37% 30.03 in - West 5.8 mph - N/A   Unknown
5:00 PM 58 °F - 30 °F 22% 30.02 in - WNW 4.6 mph - -  
5:00 PM 57.6 °F - 29.7 °F 35% 30.02 in - WNW 4.6 mph - N/A   Unknown
6:00 PM 55.9 °F - 29.3 °F 36% 30.02 in - West 5.8 mph - N/A   Unknown
7:00 PM 52.7 °F - 28.6 °F 40% 30.03 in - West 3.5 mph - N/A   Unknown
8:00 PM 47.7 °F - 30.7 °F 52% 30.04 in - ENE 2.3 mph - N/A   Unknown
9:00 PM 45.3 °F 44.0 °F 30.9 °F 57% 30.04 in - SE 3.5 mph - N/A   Unknown
10:00 PM 42.8 °F 40.1 °F 32.9 °F 68% 30.02 in - East 4.6 mph - N/A   Unknown
11:00 PM 42 °F - 34 °F 64% 30.01 in - ESE 8.1 mph - -  
11:00 PM 41.7 °F 36.7 °F 34.0 °F 74% 30.01 in - ESE 8.1 mph - N/A   Unknown